| time (UTC) | temp F | wind direction | speed knots | gust knots | rain 1hr in | rain 24hr in | rain mn in | humidity % | barometer mb |
| 20260503072301 | 57 | 110 | 1.7 | 0.0 | 0.00 | 0.00 | 0.00 | 10 | 1017.0 |
| 20260503070657 | 57 | 110 | 1.7 | 0.0 | 0.00 | 0.00 | 0.00 | 10 | 1017.0 |
| 20260503060251 | 57 | 0 | 0.9 | 0.0 | 0.00 | 0.00 | 0.00 | 10 | 1018.0 |
| 20260503054650 | 57 | 0 | 0.9 | 0.0 | 0.00 | 0.00 | 0.00 | 10 | 1018.0 |
| 20260503053049 | 57 | 0 | 0.9 | 0.0 | 0.00 | 0.00 | 0.00 | 10 | 1018.0 |
| 20260503051448 | 57 | 0 | 0.9 | 0.0 | 0.00 | 0.00 | 0.00 | 10 | 1018.0 |
| 20260503045847 | 57 | 0 | 1.7 | 0.0 | 0.00 | 0.00 | 0.00 | 10 | 1018.0 |
| 20260503044247 | 57 | 0 | 1.7 | 0.0 | 0.00 | 0.00 | 0.00 | 10 | 1018.0 |
| 20260503042646 | 57 | 0 | 1.7 | 0.0 | 0.00 | 0.00 | 0.00 | 10 | 1019.0 |
| 20260503041045 | 57 | 0 | 1.7 | 0.0 | 0.00 | 0.00 | 0.00 | 10 | 1019.0 |
| 20260503035444 | 57 | 0 | 1.7 | 0.0 | 0.00 | 0.00 | 0.00 | 10 | 1019.0 |
| 20260503033844 | 58 | 0 | 1.7 | 0.0 | 0.00 | 0.00 | 0.00 | 10 | 1018.0 |
| 20260503032244 | 52 | 42 | 0.9 | 0.9 | 0.00 | 0.00 | 0.00 | 93 | 1018.0 |
| 20260503030643 | 53 | 42 | 0.9 | 0.9 | 0.00 | 0.00 | 0.00 | 93 | 1018.0 |
| 20260503025043 | 53 | 42 | 0.9 | 0.9 | 0.00 | 0.00 | 0.00 | 93 | 1018.0 |
| 20260503023440 | 52 | 68 | 0.9 | 3.5 | 0.00 | 0.00 | 0.00 | 93 | 1018.0 |
| 20260503021840 | 52 | 68 | 0.9 | 3.5 | 0.00 | 0.00 | 0.00 | 93 | 1017.0 |
| 20260503020234 | 52 | 68 | 0.9 | 3.5 | 0.00 | 0.00 | 0.00 | 93 | 1017.0 |
| 20260503014631 | 52 | 68 | 0.9 | 3.5 | 0.00 | 0.00 | 0.00 | 93 | 1017.0 |
| 20260503013030 | 52 | 68 | 0.9 | 3.5 | 0.00 | 0.00 | 0.00 | 93 | 1017.0 |
| 20260503011430 | 53 | 68 | 0.9 | 3.5 | 0.00 | 0.00 | 0.00 | 93 | 1017.0 |
| 20260503005829 | 53 | 68 | 1.7 | 3.5 | 0.00 | 0.00 | 0.00 | 93 | 1017.0 |
| 20260503004229 | 52 | 290 | 7.0 | 0.0 | 0.00 | 0.00 | 0.00 | 94 | 1016.0 |
| 20260503002628 | 53 | 290 | 7.0 | 0.0 | 0.00 | 0.00 | 0.00 | 94 | 1015.0 |
| 20260503001027 | 53 | 290 | 7.0 | 0.0 | 0.00 | 0.00 | 0.00 | 94 | 1015.0 |
| 20260502235426 | 53 | 290 | 7.0 | 0.0 | 0.00 | 0.00 | 0.00 | 94 | 1015.0 |
| 20260502233826 | 53 | 290 | 7.0 | 0.0 | 0.00 | 0.00 | 0.00 | 94 | 1015.0 |
| 20260502232225 | 53 | 290 | 7.0 | 0.0 | 0.00 | 0.00 | 0.00 | 94 | 1015.0 |
| 20260502230625 | 53 | 290 | 7.0 | 0.0 | 0.00 | 0.00 | 0.00 | 94 | 1015.0 |
| 20260502225022 | 53 | 290 | 7.0 | 0.0 | 0.00 | 0.00 | 0.00 | 94 | 1015.0 |
| 20260502223421 | 54 | 290 | 7.0 | 0.0 | 0.00 | 0.00 | 0.00 | 94 | 1015.0 |
| 20260502221815 | 54 | 290 | 7.0 | 0.0 | 0.00 | 0.00 | 0.00 | 94 | 1014.0 |
| 20260502220215 | 54 | 290 | 7.0 | 0.0 | 0.00 | 0.00 | 0.00 | 94 | 1014.0 |
| 20260502214614 | 55 | 290 | 7.0 | 0.0 | 0.00 | 0.00 | 0.00 | 94 | 1014.0 |
| 20260502213014 | 56 | 290 | 7.0 | 0.0 | 0.00 | 0.00 | 0.00 | 95 | 1014.0 |
| 20260502211413 | 55 | 290 | 7.0 | 0.0 | 0.00 | 0.00 | 0.00 | 94 | 1014.0 |
| 20260502205813 | 56 | 290 | 7.0 | 0.0 | 0.00 | 0.00 | 0.00 | 94 | 1014.0 |
| 20260502204212 | 57 | 290 | 7.0 | 0.0 | 0.00 | 0.00 | 0.00 | 92 | 1014.0 |
| 20260502202611 | 56 | 290 | 7.0 | 0.0 | 0.00 | 0.00 | 0.00 | 89 | 1014.0 |
| 20260502201011 | 57 | 290 | 7.0 | 0.0 | 0.00 | 0.00 | 0.00 | 90 | 1014.0 |
| 20260502195411 | 56 | 290 | 7.0 | 0.0 | 0.00 | 0.00 | 0.00 | 85 | 1014.0 |
| 20260502193810 | 56 | 290 | 7.0 | 0.0 | 0.00 | 0.00 | 0.00 | 84 | 1014.0 |
| 20260502192209 | 56 | 290 | 7.0 | 0.0 | 0.00 | 0.00 | 0.00 | 82 | 1014.0 |
| 20260502190609 | 56 | 290 | 7.0 | 0.0 | 0.00 | 0.00 | 0.00 | 82 | 1014.0 |
| 20260502185008 | 56 | 290 | 7.0 | 0.0 | 0.00 | 0.00 | 0.00 | 81 | 1014.0 |
| 20260502183407 | 57 | 290 | 7.0 | 0.0 | 0.00 | 0.00 | 0.00 | 81 | 1014.0 |
| 20260502181806 | 57 | 290 | 7.0 | 0.0 | 0.00 | 0.00 | 0.00 | 81 | 1014.0 |
| 20260502180206 | 58 | 290 | 7.0 | 0.0 | 0.00 | 0.00 | 0.00 | 81 | 1014.0 |
| 20260502164201 | 63 | 290 | 7.8 | 0.0 | 0.00 | 0.00 | 0.00 | 81 | 1016.0 |
| 20260502162600 | 58 | 274 | 0.9 | 0.9 | 0.00 | 0.00 | 0.00 | 77 | 1016.0 |
| 20260502161000 | 59 | 274 | 1.7 | 1.7 | 0.00 | 0.00 | 0.00 | 77 | 1016.0 |
| 20260502152156 | 58 | 0 | 0.9 | 0.0 | 0.00 | 0.00 | 0.00 | 77 | 1016.0 |
| 20260502150556 | 59 | 0 | 0.9 | 0.0 | 0.00 | 0.00 | 0.00 | 77 | 1016.0 |
| 20260502122546 | 57 | 110 | 2.6 | 0.0 | 0.00 | 0.00 | 0.00 | 87 | 1016.0 |
| 20260502120944 | 57 | 110 | 2.6 | 0.0 | 0.00 | 0.00 | 0.00 | 87 | 1016.0 |
| 20260502115343 | 57 | 120 | 2.6 | 0.0 | 0.00 | 0.00 | 0.00 | 86 | 1016.0 |
| 20260502113743 | 57 | 120 | 2.6 | 0.0 | 0.00 | 0.00 | 0.00 | 86 | 1016.0 |
| 20260502112142 | 57 | 120 | 2.6 | 0.0 | 0.00 | 0.00 | 0.00 | 85 | 1016.0 |
| 20260502110537 | 57 | 120 | 2.6 | 0.0 | 0.00 | 0.00 | 0.00 | 84 | 1016.0 |
| 20260502104935 | 57 | 120 | 2.6 | 0.0 | 0.00 | 0.00 | 0.00 | 83 | 1016.0 |
| 20260502103334 | 58 | 120 | 2.6 | 0.0 | 0.00 | 0.00 | 0.00 | 82 | 1016.0 |
| 20260502101734 | 58 | 120 | 2.6 | 0.0 | 0.00 | 0.00 | 0.00 | 82 | 1016.0 |
| 20260502100134 | 59 | 0 | 1.7 | 0.0 | 0.00 | 0.00 | 0.00 | 82 | 1016.0 |
| 20260502091332 | 49 | 110 | 3.5 | 2.6 | 0.00 | 0.00 | 0.00 | 82 | 1016.0 |